Theta_e
289 290 290 289 288 288 289 289 289 289 288 287 287 288 288 287 287 287 285 285 285 284 284 284 284 284 284 284 284 284 283 283 283 283 282 283 283 282 282 281 282 282 282 282 281 282 282 282 282 282 280 281 282 282 281 281 280 281 281 280 281 280 281 280 280 280 280 279 281 282 282 282 281 282 282 283 283 283 287 284 284 284 283 283 283
290 290 289 289 289 289 289 289 289 288 288 288 287 288 288 288 288 285 285 287 285 285 284 285 284 284 284 284 284 284 284 283 283 283 283 283 283 284 283 282 282 282 281 281 282 282 282 282 282 282 281 281 281 281 282 281 281 280 280 281 281 281 281 281 280 279 281 280 280 281 281 282 283 282 282 282 282 282 282 284 284 284 283 283 283
290 290 290 289 290 289 289 289 289 288 287 288 287 288 288 288 287 286 287 287 286 285 286 285 285 284 284 284 284 284 284 284 284 283 283 283 283 283 284 283 283 282 282 282 282 282 281 282 283 283 283 281 282 282 281 281 281 281 281 281 281 281 280 281 280 279 279 280 280 280 280 281 282 283 283 283 284 283 282 282 283 284 284 283 282
290 289 289 289 289 289 289 289 288 288 287 288 288 288 288 288 287 287 287 287 287 286 285 285 284 284 284 284 284 284 284 284 284 283 284 284 283 283 283 283 283 283 283 283 282 282 282 282 283 284 283 282 282 282 282 281 281 281 281 281 281 282 281 280 280 280 279 279 279 280 281 280 281 283 283 283 282 282 282 283 282 282 283 283 283
288 289 288 289 289 288 288 288 288 288 288 288 288 288 288 288 288 287 287 286 287 286 286 284 284 284 285 285 284 284 284 284 284 284 284 284 284 284 283 283 283 283 283 283 284 283 283 284 284 284 283 282 283 283 283 282 282 281 281 282 282 282 282 281 280 280 279 279 281 282 282 281 281 282 282 282 281 281 281 281 282 282 282 283 283
288 288 288 287 288 288 288 288 288 288 288 288 288 289 288 288 288 288 287 287 287 286 286 286 286 285 285 285 285 285 285 284 284 284 284 284 284 284 284 284 283 283 283 283 284 285 284 284 285 285 284 283 283 284 284 283 282 281 281 282 282 281 281 280 280 280 279 280 280 281 282 281 281 281 282 282 281 280 280 280 280 281 281 281 282
288 287 287 287 287 288 288 288 289 288 288 288 288 287 287 287 287 287 288 287 287 287 287 286 286 286 286 286 285 285 285 285 285 284 284 284 284 283 283 284 284 284 284 284 284 285 285 285 285 285 285 284 284 284 284 284 283 282 282 282 282 281 281 280 280 280 280 280 280 281 281 283 282 281 283 281 281 281 281 281 280 280 280 281 282
287 287 286 286 287 288 288 288 288 288 288 287 287 287 287 287 287 288 287 287 287 287 287 287 287 286 286 286 286 286 285 285 285 285 284 284 284 283 283 283 283 284 284 284 285 285 285 286 286 286 285 285 285 285 285 284 284 283 283 283 282 281 281 281 280 280 280 280 280 281 281 281 281 282 281 279 279 279 280 280 280 281 280 280 280
286 286 285 286 287 288 288 287 287 286 286 286 287 287 287 287 287 287 286 287 287 287 287 287 286 286 286 286 286 286 286 286 286 285 285 284 284 284 283 283 283 283 283 283 284 284 285 286 286 286 287 287 287 287 287 286 284 283 284 283 283 282 281 281 281 281 280 280 280 281 281 280 281 282 281 280 279 280 280 279 279 280 281 281 280
286 286 286 287 288 287 287 285 286 285 285 286 287 286 286 286 286 286 286 287 286 286 286 286 286 286 286 286 286 286 286 287 287 288 289 286 285 284 284 283 283 283 283 282 283 283 284 285 286 287 287 287 287 287 288 288 288 286 285 284 283 282 282 281 281 281 281 280 280 280 280 280 281 281 281 282 282 282 280 279 278 280 279 279 280
286 286 287 287 287 286 285 286 285 285 286 285 285 285 286 286 286 286 286 286 286 286 285 285 285 286 286 286 286 287 287 288 289 290 291 291 288 286 284 284 283 283 283 282 282 283 284 285 285 286 286 286 286 287 288 288 288 288 288 288 286 284 283 282 282 282 281 280 280 280 279 279 280 282 281 282 282 281 281 280 280 279 278 278 277
286 287 287 286 286 286 286 286 285 285 285 285 285 285 285 285 285 285 285 285 285 285 284 285 286 285 286 286 285 286 287 288 290 291 291 291 291 288 286 285 284 283 283 283 283 284 284 285 286 286 285 285 286 286 286 288 288 288 288 288 288 288 288 285 283 282 281 281 280 280 280 280 281 281 281 282 282 282 281 281 280 279 279 278 278
286 286 286 286 286 286 285 285 285 285 285 285 285 285 284 284 285 285 285 285 284 284 285 285 285 285 285 285 285 286 286 288 290 291 291 291 292 290 288 287 285 285 284 284 283 283 284 284 285 286 286 286 286 285 285 284 286 288 288 288 288 289 289 290 289 286 284 283 281 281 281 282 281 281 283 283 283 281 281 281 281 281 281 280 280
285 286 286 286 286 285 285 285 285 285 285 285 285 284 284 285 285 285 285 285 284 285 285 285 285 285 285 285 285 286 286 288 290 290 290 291 291 291 288 287 286 286 285 285 284 284 284 285 285 285 286 286 286 285 285 284 283 283 284 285 286 286 288 289 289 288 287 286 284 282 283 283 282 283 284 284 283 282 282 281 281 281 281 281 282
286 286 286 286 285 285 285 285 285 285 285 285 284 284 285 285 285 285 285 285 285 285 285 285 285 285 285 285 285 285 286 289 290 290 290 291 291 291 288 287 287 286 286 285 285 285 286 286 286 285 285 285 286 286 284 284 284 284 283 283 284 285 285 285 286 287 287 287 287 285 285 285 285 285 285 285 284 284 284 283 283 283 283 283 282
286 286 285 285 285 285 285 285 285 285 285 284 284 285 285 285 285 285 285 285 284 284 285 284 284 285 285 285 284 285 286 289 289 290 290 291 291 289 287 286 286 286 286 286 286 286 286 286 285 285 285 285 286 288 287 285 284 283 283 283 284 284 284 286 287 288 287 287 287 287 287 287 288 287 287 286 285 284 284 284 283 281 281 280 279
285 286 286 286 285 285 285 285 285 285 285 284 285 285 285 285 285 284 284 284 285 285 285 285 285 285 285 284 284 285 285 287 289 289 290 291 290 287 286 285 285 285 285 285 286 286 286 286 286 285 285 285 287 289 289 288 284 283 283 283 283 283 284 285 287 288 289 289 289 289 290 290 290 291 291 291 288 286 283 281 281 281 279 278 279
286 286 286 286 285 285 285 284 285 285 285 285 285 285 285 285 285 284 284 285 285 285 285 285 285 285 284 284 284 284 285 286 288 289 289 290 289 286 285 284 284 284 284 285 285 286 286 286 286 286 286 286 288 289 289 288 285 284 283 282 282 282 283 285 285 286 288 288 289 289 289 289 290 290 291 291 290 289 285 281 282 281 280 280 279
286 286 286 286 285 285 285 284 284 285 285 285 286 285 286 286 286 283 284 284 284 284 284 284 284 285 284 284 284 284 284 285 287 288 289 289 288 286 285 284 284 284 284 284 285 285 285 286 286 286 286 287 289 289 289 287 285 284 283 282 282 282 283 284 284 284 284 284 284 285 285 286 287 287 287 288 289 288 287 285 285 282 280 280 280
287 286 286 286 285 285 284 284 285 285 285 286 286 286 285 285 284 284 284 283 283 283 283 283 283 284 284 284 284 284 284 284 285 288 288 289 289 287 284 283 283 283 284 284 284 284 284 284 286 288 289 289 289 289 289 289 286 284 284 282 282 282 284 285 285 285 284 284 285 285 284 285 285 285 285 285 286 286 286 286 285 284 282 281 280
287 286 286 285 285 285 285 285 285 285 285 286 286 285 284 284 284 283 283 283 282 283 283 283 283 284 284 284 283 283 284 284 284 287 288 288 289 288 285 284 284 284 284 284 283 284 284 284 284 286 288 289 289 289 289 289 288 286 285 284 284 285 286 285 285 285 285 285 285 285 284 284 284 284 284 284 285 285 285 286 285 285 284 282 281
286 286 285 285 285 285 285 285 285 286 285 284 284 284 284 283 283 283 282 282 282 282 283 282 282 283 284 284 283 283 284 283 283 285 287 288 288 289 286 284 285 283 283 283 283 283 284 284 284 285 287 288 288 289 289 289 289 287 286 288 288 288 286 286 286 285 285 285 284 284 284 283 283 283 283 283 284 284 284 285 285 285 285 284 283
286 286 285 285 285 285 285 285 285 286 285 284 283 284 284 282 283 282 282 282 282 282 282 282 282 282 283 283 283 283 283 283 284 283 285 287 288 288 288 287 288 285 283 283 283 283 284 283 284 285 286 287 288 288 289 289 288 287 289 289 288 288 287 286 286 285 285 285 284 283 283 283 283 282 282 282 283 283 282 283 283 282 281 279 277
285 285 285 285 285 285 285 285 285 285 284 284 282 283 283 283 282 282 281 281 281 281 282 282 281 281 282 283 284 283 282 282 283 283 284 286 287 288 289 289 289 286 284 284 284 284 283 283 284 286 286 287 287 288 288 288 287 288 289 289 288 287 287 286 286 285 285 284 284 283 283 283 283 283 282 282 282 281 280 279 278 278 278 275 274
285 285 285 285 285 285 284 284 284 284 284 283 282 283 283 282 282 282 281 281 281 281 282 281 281 281 281 282 283 283 283 282 282 282 283 284 286 287 288 288 289 289 286 285 284 284 285 286 286 286 286 287 287 287 287 287 287 288 288 287 286 286 286 285 285 285 284 284 284 284 283 283 283 283 283 281 279 278 275 273 272 272 271 271 270
284 285 285 285 285 284 284 284 284 284 284 283 283 284 283 283 282 283 281 281 281 281 282 281 281 281 281 282 282 283 283 281 282 282 281 282 282 284 286 286 285 285 285 285 285 286 287 287 287 286 286 285 285 284 283 284 285 285 285 285 285 285 285 285 284 284 283 284 283 283 283 283 281 280 279 278 276 275 274 272 270 269 270 269 268
285 285 285 285 285 284 283 284 284 284 283 282 282 283 283 282 282 282 282 282 281 281 281 281 281 281 281 282 282 282 282 281 281 280 279 279 279 280 281 281 282 282 281 281 282 283 284 284 285 285 285 285 284 284 284 285 285 285 284 285 284 284 284 284 284 283 283 283 283 283 283 278 275 275 275 275 275 274 273 272 271 270 269 269 268
285 285 285 285 284 284 284 283 284 284 284 283 283 283 283 282 282 282 283 282 282 282 281 282 282 282 282 282 282 282 282 282 281 280 281 279 279 279 279 279 279 278 279 279 279 281 281 282 282 281 282 283 284 283 284 284 284 284 284 284 284 284 284 284 284 283 283 283 283 277 273 273 274 274 273 273 273 271 271 271 270 268 268 267 266
284 284 285 284 284 284 284 284 284 284 284 283 283 284 284 284 283 284 285 285 285 284 284 284 284 284 283 282 282 281 282 282 283 283 282 284 283 282 280 280 279 278 280 283 282 279 279 279 280 280 281 281 282 282 282 282 282 282 282 282 283 282 282 281 281 281 281 280 279 277 276 273 273 271 271 271 269 268 269 268 268 267 266 267 266
283 284 284 284 284 283 283 283 283 283 283 283 283 283 283 284 285 285 285 285 284 285 286 285 285 284 283 284 283 283 283 284 286 287 285 285 286 286 286 286 286 283 282 285 284 282 281 281 281 281 281 281 281 281 281 281 281 281 281 281 280 279 279 279 279 279 278 277 277 275 274 272 270 270 270 269 267 267 267 268 266 266 265 265 264
284 284 284 284 284 284 283 283 283 283 283 283 282 282 283 284 285 285 285 285 285 285 286 286 287 286 285 284 285 286 286 286 286 286 286 286 286 286 286 286 286 286 287 285 283 282 281 281 281 281 281 281 280 280 281 280 280 280 280 279 277 276 276 276 276 274 273 273 273 272 271 271 270 269 269 268 266 266 265 266 265 265 264 264 263
285 285 285 285 284 284 284 284 283 283 282 282 282 282 282 282 284 285 285 285 285 285 286 286 286 286 286 286 284 284 285 286 286 285 284 284 284 285 285 285 286 286 286 286 283 282 282 281 281 280 281 280 280 280 280 280 280 279 279 277 276 274 274 273 272 271 271 271 270 269 269 269 268 268 267 266 266 265 264 264 264 263 263 263 262
285 286 286 285 285 284 284 284 283 283 282 282 282 282 282 282 282 283 285 285 285 285 285 286 286 286 286 286 286 286 285 285 286 286 284 284 284 283 284 285 285 285 285 283 282 281 281 281 281 281 280 280 280 280 280 280 279 279 278 277 276 272 271 271 271 270 269 269 269 268 268 267 267 266 265 265 265 264 264 263 263 262 262 261 261
286 286 286 286 285 285 284 284 284 283 283 283 283 283 282 282 282 283 283 283 284 284 285 285 285 285 285 285 285 285 285 285 284 283 283 282 283 284 284 283 285 285 284 281 281 280 281 280 280 280 280 280 279 279 278 278 278 277 275 273 270 269 269 269 269 268 268 268 267 266 266 266 266 265 264 264 264 263 263 262 262 261 261 260 259
286 285 285 285 286 286 285 284 284 284 283 283 283 282 282 282 282 282 282 282 282 283 284 283 284 284 284 284 285 285 285 285 285 284 284 284 284 284 284 281 279 280 280 280 280 281 280 280 279 279 278 277 277 275 275 274 273 273 271 269 268 268 267 267 267 267 267 266 265 265 265 265 264 264 264 263 262 262 261 261 260 260 259 259 259
286 286 286 285 285 285 285 284 284 284 284 283 283 283 283 282 282 282 282 282 282 283 283 284 284 283 284 284 284 284 284 284 284 284 284 283 283 283 279 278 278 279 279 279 279 279 279 277 274 273 273 272 271 271 270 269 269 269 268 268 267 266 266 265 265 265 265 265 264 264 264 263 263 262 262 261 261 260 260 260 260 260 259 258 258
286 286 286 286 285 285 284 284 284 284 283 284 283 283 282 282 282 282 282 283 283 283 284 283 282 281 282 281 282 283 284 283 283 282 282 282 282 281 279 278 278 278 278 278 276 274 272 269 269 269 268 268 267 267 267 266 266 266 267 266 266 265 265 264 264 264 263 263 262 262 262 261 261 261 260 260 260 259 259 259 259 258 258 258 258
286 287 286 286 285 285 284 284 284 283 284 283 283 283 282 282 282 283 283 283 283 283 283 283 282 282 282 282 282 280 279 280 280 280 280 279 276 275 275 274 273 273 272 269 268 268 267 266 266 266 266 266 265 265 265 264 264 264 264 264 264 265 265 263 263 262 262 261 261 261 261 260 260 259 260 259 259 258 258 258 258 257 257 257 257
286 286 285 285 285 285 285 284 284 284 283 283 283 282 282 282 282 282 283 283 283 283 283 283 282 282 282 281 278 278 278 277 277 276 275 272 270 269 269 269 268 268 267 266 265 265 264 264 264 264 264 263 263 263 263 263 263 263 263 262 262 261 261 261 261 260 260 260 259 260 259 259 259 259 258 258 257 258 257 257 257 257 256 255 255
286 286 285 284 285 285 285 285 285 284 283 283 282 282 282 282 283 283 283 283 283 283 283 282 282 282 279 276 276 276 276 276 275 274 271 269 266 265 265 265 265 265 264 264 264 263 263 262 262 262 261 261 261 261 262 261 261 261 262 261 260 260 260 260 259 259 259 259 258 257 257 256 256 256 256 256 255 255 255 255 256 256 255 254 254
287 287 283 285 285 285 284 284 284 284 284 283 283 283 283 283 283 283 283 283 283 283 283 282 282 276 275 276 276 277 275 274 271 268 266 264 263 262 261 261 262 262 263 262 262 262 261 261 261 260 260 260 260 260 260 260 260 259 259 259 259 258 258 257 257 256 256 256 255 254 255 254 254 253 252 253 257 255 254 254 253 253 253 253 253
287 286 286 285 285 284 284 284 284 284 283 283 283 283 283 283 283 283 283 283 282 282 282 280 274 272 274 274 274 274 270 268 267 265 263 262 261 260 260 259 260 260 260 260 260 260 260 259 259 258 258 258 257 258 258 258 258 258 258 257 257 256 256 255 255 255 255 255 255 255 254 255 255 254 254 256 251 251 251 251 251 251 251 250 251
286 286 286 285 285 284 284 284 284 283 283 283 283 281 282 283 283 283 283 282 282 281 280 276 271 270 270 271 270 269 266 265 264 262 261 260 259 259 258 258 258 258 258 258 259 259 258 257 256 255 255 255 255 255 255 255 256 256 256 256 255 255 254 254 254 254 254 254 254 254 253 253 253 252 252 252 250 250 249 250 251 250 250 249 248
286 286 285 285 285 284 283 284 283 283 283 282 282 282 282 282 282 282 282 281 279 277 275 272 270 268 267 266 266 265 263 262 261 260 260 259 258 257 257 257 257 257 257 257 257 258 257 256 255 254 254 254 254 254 254 253 253 253 253 253 253 254 252 252 252 252 252 252 252 252 251 251 251 250 251 251 249 248 249 249 249 248 248 246 246
286 286 285 284 284 283 283 282 283 282 281 281 282 282 281 282 282 281 280 278 274 271 270 269 267 266 264 263 263 262 261 260 259 259 258 257 257 257 256 256 256 255 255 255 255 255 255 255 255 254 253 253 253 253 253 253 253 252 252 252 251 251 250 250 250 250 250 249 249 249 249 248 247 247 248 248 249 248 248 247 247 249 247 246 245
286 285 284 284 283 282 282 282 281 282 282 282 282 282 282 281 279 278 275 273 271 268 267 266 265 264 262 261 261 260 259 258 258 258 257 257 256 256 255 255 255 254 254 253 253 254 254 254 253 253 252 252 252 252 252 251 251 251 250 250 251 250 250 250 250 250 249 248 248 247 248 248 247 249 250 247 247 247 246 245 245 245 245 245 245
286 285 284 283 283 282 281 281 281 282 282 282 282 281 280 277 274 271 270 269 268 266 265 264 263 261 260 260 259 258 258 257 257 256 256 255 255 255 255 254 254 253 253 253 252 252 252 252 252 252 251 251 251 250 250 249 249 249 249 248 248 249 249 250 250 249 249 249 248 246 246 246 247 246 247 247 246 245 246 245 244 244 243 244 244
285 284 284 283 283 282 282 281 281 277 281 281 280 278 275 272 270 268 267 266 265 264 263 262 261 260 259 258 258 257 256 256 256 255 255 254 254 254 254 253 253 252 252 252 251 251 251 251 250 250 250 250 250 250 249 249 248 247 247 247 248 249 250 251 247 248 247 246 246 246 246 245 245 245 245 245 243 244 243 244 244 244 244 245 245
284 284 284 283 282 282 281 281 280 280 280 279 276 274 270 269 267 266 265 264 263 263 262 260 259 259 258 257 257 256 256 255 254 254 253 253 253 253 253 252 252 252 251 250 250 250 250 250 250 249 249 249 249 249 250 250 250 249 249 247 252 257 255 254 250 247 250 247 246 245 244 244 243 244 245 244 244 244 244 243 243 245 245 245 245
284 283 283 282 281 280 281 281 280 280 277 276 274 270 268 266 265 264 263 263 262 261 260 260 259 258 257 256 256 255 255 254 253 252 252 252 252 252 252 251 251 250 250 250 249 249 249 248 248 248 248 248 248 249 249 249 249 249 247 248 255 255 254 253 253 253 250 245 246 245 245 244 243 242 242 242 242 242 243 244 244 245 245 244 244
282 281 281 281 280 279 279 278 277 276 274 272 270 268 266 265 264 263 262 262 260 259 259 258 258 257 256 256 255 254 254 253 252 252 251 251 251 251 251 250 250 250 249 249 249 248 248 248 248 248 247 248 248 248 248 248 248 249 253 256 255 254 254 253 249 252 253 252 245 244 244 244 244 243 243 242 242 241 245 246 246 245 245 245 246
Wind_Speed
5 7 5 6 5 7 8 6 7 7 6 6 7 8 8 7 7 7 4 7 6 6 7 8 7 7 7 7 7 7 6 7 6 5 5 6 6 6 5 4 5 6 4 6 4 4 5 5 6 6 4 4 5 5 4 4 2 3 3 4 5 4 5 6 6 8 5 4 4 5 3 5 4 7 8 8 7 7 7 8 8 7 8 8 8
6 7 5 6 6 7 8 6 6 6 6 7 7 8 8 8 7 5 6 8 5 7 7 7 6 7 6 8 7 7 7 7 6 6 7 7 8 6 7 7 7 7 5 7 6 6 5 6 7 7 4 5 4 5 6 5 4 4 5 5 6 6 4 5 7 5 9 1 3 3 2 4 6 4 9 9 9 6 7 8 7 7 8 8 7
6 5 6 6 7 7 7 7 6 6 6 7 7 8 8 7 6 6 8 8 5 6 7 6 6 6 6 7 7 7 8 8 7 7 8 9 9 8 8 8 9 9 8 9 9 6 5 7 8 7 4 5 6 7 5 6 5 6 7 5 6 6 5 5 5 7 7 7 4 4 4 4 7 7 7 7 8 6 7 8 9 7 7 8 8
6 5 6 7 8 6 7 7 6 6 6 7 7 8 7 7 5 6 7 6 8 7 5 6 5 6 7 8 8 9 8 8 8 9 11 11 11 11 10 9 9 9 10 10 9 8 9 8 9 9 7 8 9 8 8 7 7 7 7 6 6 7 6 5 7 7 6 7 5 7 5 5 6 6 4 5 7 6 7 8 6 7 7 7 8
5 6 6 7 7 7 7 6 6 7 8 7 8 8 7 7 5 6 6 7 7 6 6 5 6 7 9 10 10 10 10 9 9 10 10 10 11 11 10 10 10 11 11 10 9 9 9 10 11 9 8 9 8 8 7 8 8 7 8 7 7 7 5 6 8 6 7 9 8 5 5 5 5 5 5 7 6 5 5 7 8 7 7 8 7
5 5 5 6 7 7 7 6 7 8 8 7 8 8 7 5 6 6 5 7 7 6 7 7 7 9 9 10 10 10 9 9 10 11 11 10 9 10 10 10 10 10 10 10 10 9 10 12 12 10 9 10 10 9 8 10 8 8 9 9 8 6 7 7 7 7 7 10 9 9 5 6 5 6 7 6 6 6 6 7 5 5 7 8 9
6 5 5 6 6 7 7 7 7 7 7 7 6 5 6 6 6 8 6 6 7 8 7 8 8 8 10 9 10 10 10 9 10 10 10 10 9 9 10 10 10 9 9 10 9 11 11 11 11 10 10 10 11 11 10 9 8 10 11 11 8 7 8 8 7 8 9 9 9 9 10 7 7 9 8 5 6 8 9 9 8 7 8 9 11
5 5 5 5 6 8 7 7 6 6 6 5 6 6 6 7 7 7 5 7 7 8 8 8 8 6 9 9 10 9 9 9 9 10 10 10 9 9 9 10 10 9 9 9 10 11 11 12 12 11 11 12 12 11 10 10 8 10 10 8 8 8 8 8 8 8 9 10 10 11 9 8 6 8 2 2 4 7 9 9 11 10 9 9 10
5 5 5 6 7 7 6 5 4 5 5 5 6 7 7 7 7 6 6 7 7 7 7 7 8 9 9 9 9 8 8 9 8 9 9 10 9 9 10 10 10 10 9 9 10 11 12 12 12 12 13 15 17 15 13 12 9 10 11 9 8 9 8 8 9 9 9 9 10 9 9 8 10 8 7 8 10 14 5 6 9 10 11 8 7
5 6 6 7 6 6 6 5 5 4 5 6 7 7 7 7 7 6 7 7 7 6 6 7 7 9 10 10 8 7 8 8 11 15 14 10 8 8 8 9 9 10 10 9 10 12 13 13 11 16 17 18 18 19 20 19 18 14 12 9 10 9 9 10 10 10 9 9 11 11 10 12 11 11 11 10 10 7 6 7 10 10 7 9 8
5 6 8 6 6 6 5 6 5 5 6 5 6 6 7 6 6 7 7 6 7 7 6 7 8 8 9 9 9 8 8 8 14 15 17 18 12 8 8 9 9 10 10 11 12 13 12 12 11 13 15 15 16 21 20 21 21 21 21 18 13 11 10 11 12 10 9 11 10 9 11 13 12 10 10 10 8 8 9 8 10 6 8 9 12
6 7 7 7 6 6 6 6 6 6 5 6 6 6 5 5 6 7 7 7 8 5 6 8 8 7 7 8 9 9 9 12 15 15 16 17 15 10 8 8 8 9 10 12 12 12 12 11 10 8 9 12 13 13 16 20 21 21 21 21 21 20 19 15 12 10 11 12 12 12 10 12 12 8 10 9 10 8 8 8 9 9 10 10 10
7 8 7 6 7 7 6 7 7 7 6 6 6 5 5 6 7 7 8 7 5 6 7 7 8 8 7 9 10 9 9 13 14 16 16 17 16 13 8 9 9 10 11 12 11 10 10 10 10 9 9 15 14 11 11 11 16 21 20 21 21 23 23 24 22 17 13 13 12 13 12 12 11 11 11 10 6 9 7 9 9 9 10 11 12
6 8 7 7 7 7 6 6 8 8 7 6 6 6 6 7 7 6 6 6 7 8 7 8 8 8 8 8 9 9 10 11 14 15 15 16 16 13 8 9 10 11 12 11 10 10 12 12 11 10 9 9 9 10 10 10 9 10 11 13 14 18 21 23 24 26 23 16 14 15 13 11 13 11 10 7 9 11 10 12 9 10 11 13 13
8 8 8 7 6 7 7 6 8 8 7 6 6 7 7 7 7 7 6 7 7 8 8 7 7 7 8 7 8 10 10 13 13 15 15 15 16 13 8 9 9 10 11 10 11 12 13 12 11 11 10 9 9 11 10 10 10 10 11 12 14 14 14 14 15 16 16 15 16 16 16 14 15 14 12 9 12 11 11 12 11 11 11 11 9
9 8 8 7 6 7 7 7 7 7 7 6 7 8 8 7 8 6 5 6 6 6 8 6 8 9 8 7 7 10 11 13 13 14 14 14 15 9 8 9 9 10 10 10 10 11 11 12 11 11 10 11 14 18 15 11 9 11 12 13 13 12 12 15 19 17 14 12 13 14 14 15 18 16 13 11 10 9 8 8 5 5 7 11 13
9 9 8 7 7 6 6 7 8 8 7 7 8 8 8 9 7 4 5 7 7 7 8 8 7 7 8 7 7 10 11 13 12 13 13 14 11 7 8 8 8 9 10 10 11 11 11 11 10 10 11 12 16 18 18 15 10 11 12 13 12 10 13 12 16 19 18 20 21 22 22 22 22 22 22 22 16 10 6 8 12 7 9 13 13
9 8 9 8 7 6 7 7 8 8 7 8 9 9 8 7 7 4 6 7 8 8 7 8 8 7 7 9 8 9 11 13 14 12 12 12 10 8 8 8 9 9 9 10 9 9 11 16 14 12 12 13 16 18 19 14 10 12 12 12 12 14 15 9 6 8 15 20 21 22 23 22 23 24 24 22 21 15 10 14 12 6 12 12 14
9 9 9 7 6 6 7 7 7 8 8 10 8 9 8 8 7 4 6 5 8 7 7 8 9 9 7 8 10 10 10 13 14 12 12 12 10 7 8 7 9 9 9 10 8 9 9 11 16 15 14 14 17 17 18 15 11 11 11 10 13 15 14 8 10 10 9 9 10 11 13 15 15 14 15 21 21 18 14 14 10 9 12 12 11
9 7 7 7 6 6 6 7 8 8 9 10 9 9 7 7 7 6 7 6 7 7 7 7 9 11 8 6 8 8 9 11 10 13 12 12 12 8 6 7 9 9 9 9 9 8 8 9 11 14 16 16 15 17 17 19 13 11 9 11 13 18 12 10 10 10 10 11 11 10 12 10 10 11 11 11 12 13 14 13 12 11 12 12 11
8 8 7 7 6 7 7 7 9 9 8 9 8 8 6 7 6 6 7 7 6 7 8 8 8 10 9 7 7 8 8 9 11 12 11 12 13 12 7 8 8 8 9 9 9 9 8 8 7 10 14 16 17 17 16 18 18 13 12 14 14 13 10 9 9 11 11 10 11 10 10 9 10 9 9 9 9 9 10 12 12 11 12 12 11
8 7 8 8 7 7 8 8 8 9 7 7 7 9 7 6 7 6 6 6 7 9 8 7 8 9 10 9 7 8 9 11 9 11 12 12 12 14 9 8 9 8 10 10 9 9 9 8 7 9 13 15 16 16 17 17 20 14 14 15 15 18 15 11 9 8 9 9 9 10 10 9 8 8 9 9 9 8 8 9 10 11 11 11 12
8 8 8 8 8 8 8 8 9 7 7 7 7 9 7 6 6 6 6 6 7 9 9 7 7 9 9 9 7 7 7 8 10 9 12 12 13 13 15 12 10 9 9 11 10 9 8 8 9 11 13 14 15 16 16 18 17 13 15 15 18 20 16 11 10 10 10 11 10 11 11 10 10 10 9 9 8 7 6 6 6 6 6 3 1
7 8 8 9 8 8 8 8 8 8 8 7 6 8 8 7 7 7 6 7 7 8 8 7 6 8 9 10 10 6 5 7 8 10 10 12 12 13 14 15 15 9 9 10 9 9 9 8 9 12 13 14 15 14 15 16 12 12 15 17 18 16 11 10 9 10 11 10 11 11 11 10 9 10 9 7 6 6 5 4 4 4 5 4 5
7 9 9 8 9 8 7 8 8 8 7 6 7 8 8 6 8 7 6 7 7 7 9 6 7 8 8 9 10 9 6 6 7 7 10 12 12 13 13 15 15 15 11 9 8 9 11 15 15 14 14 14 15 15 13 14 16 16 16 16 13 8 8 8 9 9 10 11 11 11 11 10 9 9 5 4 3 4 4 3 4 4 6 7 5
9 11 9 8 9 7 8 9 8 9 8 7 8 8 8 7 8 7 6 7 7 7 8 7 7 7 8 9 9 9 7 6 7 6 5 7 7 10 12 13 13 14 13 11 13 15 15 16 16 15 13 12 9 7 7 8 11 13 14 13 8 8 8 8 9 10 11 10 10 11 10 7 6 4 2 4 5 6 6 6 5 4 5 5 5
10 10 10 9 8 7 9 9 8 8 7 7 7 7 7 7 7 8 8 7 7 7 8 8 8 8 8 8 8 8 8 6 6 6 5 5 6 6 6 7 8 8 7 6 7 8 10 10 8 9 8 10 10 10 10 10 9 9 8 7 8 8 9 9 9 10 10 10 10 9 7 3 2 4 4 5 6 5 5 6 6 5 5 4 5
10 11 11 9 8 7 8 10 10 8 8 7 8 7 7 8 9 10 10 9 8 8 8 8 9 8 8 8 7 8 9 8 7 6 6 5 5 5 5 5 5 6 6 6 6 6 6 6 7 5 5 6 6 5 6 6 7 7 7 7 7 7 8 10 10 9 9 8 8 2 1 3 4 5 4 5 4 4 4 5 5 5 4 5 4
10 12 11 8 9 8 8 8 8 8 8 7 8 9 9 8 10 10 10 8 8 9 8 9 9 8 7 8 8 8 9 10 8 6 6 7 6 6 6 6 6 6 7 8 6 4 3 5 5 6 5 6 6 6 6 6 6 6 7 7 6 6 6 6 8 8 8 7 7 6 6 4 4 3 4 4 4 4 3 4 3 6 4 3 3
9 11 10 9 9 8 8 8 8 8 9 9 8 9 10 13 11 10 10 10 14 15 12 11 9 7 7 9 8 9 10 10 11 12 12 12 12 12 12 11 10 8 7 9 6 5 6 6 7 7 7 6 7 7 7 7 7 7 6 6 6 6 6 6 7 7 5 5 5 5 4 4 4 4 4 5 4 3 3 4 3 4 4 3 3
9 10 9 10 10 9 8 8 8 8 8 8 8 8 8 8 14 19 18 15 12 14 16 18 18 15 11 10 10 14 15 15 15 16 15 14 13 12 12 11 13 12 11 7 6 7 7 7 7 7 7 7 7 8 7 7 7 6 7 5 5 6 6 5 5 3 3 4 3 2 2 4 4 4 5 4 5 4 3 3 4 3 4 4 4
10 11 10 9 9 9 8 9 8 8 8 7 8 7 8 9 9 11 16 17 17 18 18 17 17 17 18 16 12 9 12 13 13 13 12 12 10 10 12 13 13 13 12 11 8 7 7 7 7 6 6 7 7 6 6 6 6 6 6 6 6 5 5 5 1 1 1 2 2 2 2 3 3 3 4 5 5 4 4 4 3 3 3 2 2
12 11 10 9 9 9 9 8 8 8 9 8 8 7 8 8 10 10 6 11 14 15 16 16 16 16 16 16 16 13 12 11 13 13 11 10 10 8 11 13 13 13 12 9 8 8 7 7 7 6 6 7 6 5 5 5 6 6 6 6 5 2 1 1 2 2 2 2 3 3 3 4 4 4 4 5 5 4 3 3 2 2 2 2 1
14 11 10 10 9 8 9 9 8 9 8 8 8 8 8 9 9 8 9 8 7 7 11 14 14 13 14 14 13 12 11 12 12 11 10 8 7 8 9 8 12 13 11 8 7 8 7 6 6 6 5 5 5 4 5 5 5 5 3 1 2 3 3 2 2 2 2 2 3 3 3 3 3 4 4 4 2 3 3 2 2 2 1 2 2
11 13 17 13 9 10 8 8 9 8 8 8 8 8 9 8 8 9 9 9 8 9 8 5 7 10 9 9 10 11 12 13 12 12 10 8 7 8 9 6 6 6 6 6 6 6 6 6 5 4 2 3 2 2 3 2 2 1 1 2 3 2 2 2 2 2 2 3 3 3 2 3 3 3 3 4 3 2 2 2 1 2 2 1 1
12 11 10 12 11 10 9 9 8 9 9 9 8 8 8 8 8 8 8 8 8 8 7 7 6 6 11 11 11 11 12 12 11 9 7 6 6 6 5 6 5 6 6 5 6 6 6 4 2 2 1 1 2 2 2 3 2 2 2 3 3 2 3 2 2 2 3 4 3 3 4 5 4 5 4 3 3 2 2 2 2 1 1 2 2
11 11 11 10 10 9 9 8 9 9 8 8 7 8 7 8 8 7 7 8 8 8 8 7 5 6 6 7 9 11 11 7 5 4 5 5 6 4 4 5 6 5 5 5 3 3 2 2 2 2 2 2 2 2 2 3 3 3 4 4 3 3 3 3 3 3 4 4 4 4 4 4 4 3 3 3 2 3 2 2 1 2 2 2 2
12 12 11 10 9 9 9 9 9 9 9 8 8 8 8 8 8 8 8 8 8 8 8 7 6 8 8 6 4 5 2 1 2 3 3 4 4 3 3 3 3 4 4 2 2 1 2 1 1 1 2 2 2 2 3 3 3 4 4 4 4 4 6 5 6 5 4 4 4 3 3 3 3 2 2 2 2 2 1 2 1 1 0 1 1
12 16 17 15 11 10 9 8 8 8 8 8 8 8 9 8 8 8 8 7 7 8 7 7 7 7 7 3 3 3 3 0 2 3 1 2 2 2 2 2 2 2 2 2 2 1 2 2 2 3 3 3 3 3 3 3 3 3 4 4 4 4 4 4 4 4 3 3 3 3 3 3 3 3 2 3 1 1 1 0 0 0 1 1 2
11 10 12 16 11 12 9 9 8 8 9 8 9 8 8 8 9 8 7 7 8 7 7 7 6 6 2 4 3 3 3 3 3 2 2 1 1 2 2 2 2 2 2 3 3 3 3 3 4 4 4 4 4 4 3 3 3 3 4 4 4 4 3 3 3 3 3 3 4 3 4 3 3 3 3 3 1 1 1 1 1 0 0 1 2
10 11 9 11 13 10 9 9 9 11 9 9 8 8 9 8 8 6 7 8 7 7 6 5 4 2 4 3 4 4 3 3 3 2 2 2 2 2 2 3 2 3 3 3 3 3 3 3 4 4 4 4 4 4 4 4 4 4 4 4 4 4 4 4 4 5 4 4 5 4 5 4 4 4 3 2 3 3 2 1 1 1 1 1 1
10 10 10 10 10 10 9 10 10 10 9 8 8 9 8 7 7 7 7 7 6 5 5 4 4 5 5 7 4 4 4 3 3 3 3 3 3 3 3 3 4 3 3 3 3 3 4 4 4 5 5 6 6 6 6 6 6 5 5 5 5 5 5 5 4 4 5 4 5 4 4 4 3 3 3 4 3 2 1 1 0 0 1 1 1
11 10 10 8 9 10 11 11 9 8 9 9 9 7 7 7 7 6 7 6 6 5 5 4 4 4 5 6 6 7 5 4 4 4 4 4 3 4 4 4 4 4 4 4 4 4 4 5 6 6 6 6 6 6 6 5 5 5 4 4 4 4 4 4 4 4 4 4 4 4 4 4 4 3 3 3 3 3 2 1 1 1 1 1 1
9 10 10 10 9 9 9 9 9 9 9 8 7 6 6 6 7 7 7 6 6 5 4 4 5 5 4 5 5 5 5 5 4 4 4 4 3 3 3 3 3 4 4 4 4 4 4 5 5 5 5 5 5 5 5 4 4 4 4 5 4 5 5 4 4 4 4 4 3 3 3 3 3 3 2 3 3 2 2 1 1 1 1 2 1
10 11 11 10 10 10 10 9 9 8 7 5 7 7 5 7 7 6 6 6 4 4 5 5 5 5 5 4 4 5 5 5 5 5 4 4 3 3 2 3 3 4 4 4 4 4 4 4 4 5 5 5 5 5 5 5 5 5 4 5 5 5 4 3 2 2 2 3 2 2 2 3 3 3 2 1 1 1 1 1 1 2 3 2 2
11 11 10 11 10 9 10 9 7 8 8 9 8 8 7 7 6 6 5 5 5 6 6 6 5 5 5 5 5 6 5 6 6 5 5 5 4 3 4 3 4 4 4 4 4 4 4 4 4 5 5 5 5 5 5 5 4 4 4 4 5 4 2 2 1 2 2 2 2 2 1 2 2 2 2 1 1 1 1 1 1 1 2 3 4
11 12 12 11 12 10 9 7 8 9 9 8 7 8 7 7 6 5 4 5 6 5 6 6 6 6 6 5 5 6 6 5 5 5 5 4 4 4 4 4 4 5 5 5 5 5 5 5 5 5 5 4 4 5 4 3 3 3 3 2 3 3 2 1 1 1 1 1 1 2 1 1 0 0 1 1 1 1 1 2 2 3 4 4 4
12 12 12 11 11 10 10 9 10 9 8 8 8 6 6 6 6 6 6 6 6 6 6 6 6 6 6 5 5 5 5 6 6 5 5 4 4 4 4 4 4 4 4 5 4 4 5 5 4 4 4 4 4 4 3 3 3 2 2 1 0 1 2 2 0 0 0 0 0 0 0 0 0 0 1 1 1 1 2 4 3 3 4 4 6
12 12 12 11 11 11 10 10 8 10 10 8 8 8 6 7 7 7 6 6 6 6 6 7 6 5 5 6 6 6 7 7 6 6 6 5 4 4 4 4 5 4 4 4 4 4 4 4 4 4 4 4 3 4 4 3 3 3 3 3 3 4 4 3 2 1 1 1 1 1 1 1 1 1 1 1 2 2 3 3 4 4 4 5 5
12 12 12 11 10 10 8 7 9 8 6 7 8 8 7 7 7 7 6 7 6 6 6 6 6 6 6 7 7 7 7 6 7 6 6 5 5 4 4 5 5 4 5 4 4 4 4 4 4 4 4 3 4 4 4 4 4 3 2 4 4 5 7 5 3 1 0 1 1 2 2 2 1 2 2 3 3 3 3 4 4 6 5 5 6
10 10 10 10 10 9 9 8 8 7 7 7 8 8 8 8 7 7 8 7 7 7 7 6 6 7 6 7 7 7 7 6 6 6 6 5 4 4 5 4 5 5 5 5 4 4 4 4 4 4 4 4 4 5 4 3 4 5 2 2 5 6 4 3 1 2 3 1 1 1 1 1 2 2 2 3 3 3 6 5 5 5 5 5 6
Wind_Direction
265 261 267 265 256 263 265 262 259 252 258 249 251 256 257 254 251 247 257 245 232 233 236 239 239 235 236 231 232 234 231 238 230 226 227 236 237 235 243 222 229 242 234 249 233 226 226 230 239 240 227 230 238 238 240 244 229 226 196 192 214 196 179 192 214 252 284 229 225 237 221 190 218 205 220 226 228 223 219 230 230 226 229 234 237
252 257 254 252 257 258 260 260 258 260 256 259 252 257 258 256 256 261 244 258 227 235 235 239 237 238 237 241 237 237 235 234 231 215 226 232 237 228 232 225 229 239 228 240 235 223 222 226 241 243 220 228 236 236 229 230 227 232 233 211 226 217 207 185 222 223 256 272 259 238 238 186 226 194 208 220 234 217 219 231 231 224 229 233 234
255 248 253 255 254 253 258 263 261 260 259 262 261 260 260 262 256 252 257 262 255 236 245 241 240 236 239 244 242 241 236 235 230 219 227 227 230 230 223 221 222 228 228 231 232 223 219 224 236 233 213 224 234 232 224 229 222 221 231 218 224 229 213 208 199 232 240 257 228 245 226 194 206 226 212 225 229 207 213 228 229 226 224 227 229
245 244 247 252 252 259 256 255 259 258 256 256 257 260 259 260 254 249 254 261 265 261 243 251 248 241 242 246 240 238 235 230 228 222 225 223 224 227 224 220 220 223 225 227 226 217 219 224 232 226 212 218 226 222 217 215 216 218 227 227 220 229 218 207 217 222 229 240 260 215 230 207 240 248 234 226 233 226 215 233 236 233 231 225 227
246 248 243 253 261 254 258 255 253 256 252 255 254 258 260 261 262 256 260 262 258 263 261 234 240 237 238 240 241 237 233 229 228 231 230 228 227 227 227 223 223 223 223 224 222 216 219 221 231 221 212 222 233 230 222 218 219 215 222 226 219 225 223 212 223 218 229 236 252 240 215 227 235 245 225 227 237 243 246 236 235 234 236 236 232
243 249 252 249 258 258 257 258 251 250 253 256 255 257 261 263 263 264 245 256 262 251 250 250 231 241 239 244 244 245 240 231 231 234 235 233 231 232 232 231 230 228 227 226 225 220 223 225 229 224 216 217 230 231 223 224 222 219 224 227 220 215 224 230 222 222 225 240 242 260 229 222 243 239 237 220 227 244 248 246 245 236 235 245 236
255 247 252 247 258 258 258 254 252 253 253 254 259 261 260 259 257 259 255 247 254 258 252 250 247 240 248 246 246 245 245 240 238 239 238 235 232 230 233 237 237 235 233 230 225 227 230 233 235 226 225 224 229 229 227 224 220 224 225 227 218 209 221 230 223 223 228 238 246 242 255 240 211 247 240 194 214 223 244 256 250 229 227 226 246
254 254 250 255 249 257 254 254 257 255 257 261 259 258 258 259 256 257 256 256 251 251 254 253 258 244 248 246 246 243 244 244 241 241 241 238 234 232 231 237 238 237 240 234 229 233 233 234 236 229 224 226 227 231 225 227 220 230 232 225 216 210 221 229 230 227 232 236 238 247 238 248 245 238 261 129 218 255 231 231 247 250 244 228 228
261 256 258 253 255 253 260 261 256 257 257 258 260 260 259 260 262 260 255 254 252 252 255 255 260 261 255 250 253 247 243 245 242 240 242 243 232 236 232 234 237 238 236 234 232 235 238 236 235 232 227 229 227 228 226 219 217 228 234 221 217 215 220 228 233 235 239 238 249 246 251 248 243 248 235 215 219 234 219 196 239 242 252 255 239
258 264 255 257 260 258 260 264 264 261 260 257 258 261 263 265 266 265 260 255 257 257 260 257 252 256 262 262 256 250 247 246 242 240 238 240 236 231 233 233 234 236 237 235 235 235 237 237 234 230 230 230 231 232 232 229 224 223 231 212 213 215 219 228 232 235 236 238 240 243 245 245 246 236 243 235 233 232 220 205 229 234 244 254 261
261 262 268 266 266 271 271 268 261 259 254 258 261 262 264 264 267 267 267 264 261 260 254 260 255 252 255 260 264 257 252 251 249 247 248 245 243 239 231 236 232 234 234 232 237 240 242 239 239 234 232 233 235 235 234 233 233 231 232 229 216 209 220 226 235 233 230 236 242 238 238 249 247 240 242 246 236 226 218 216 233 227 229 241 257
264 267 266 274 273 271 271 271 268 263 258 258 256 257 261 263 266 266 269 271 266 258 255 253 257 256 256 258 259 259 259 256 256 257 255 253 246 241 237 236 234 233 233 232 236 242 247 247 241 233 229 228 233 236 236 237 237 236 235 234 233 227 223 223 231 235 230 237 238 236 238 242 250 236 246 241 245 240 233 230 229 231 241 243 247
269 270 269 269 271 269 269 272 271 272 263 258 260 263 261 264 264 266 266 263 271 265 257 258 260 257 252 259 261 259 259 260 261 260 260 258 255 248 242 237 236 237 237 236 237 242 247 249 250 238 233 233 236 237 237 239 238 239 239 239 238 236 235 233 231 234 240 241 238 244 232 244 247 242 235 241 232 246 238 242 236 238 242 248 250
259 266 268 264 266 268 268 268 271 270 270 268 266 266 263 261 260 258 267 275 268 271 266 260 263 261 255 254 260 263 260 263 260 260 260 261 260 254 244 241 237 240 242 240 238 240 241 245 247 249 241 239 239 238 238 237 236 235 236 237 239 241 240 238 238 238 238 242 244 248 243 235 245 245 240 225 232 239 239 248 237 244 244 246 252
270 266 266 264 260 265 265 262 266 271 271 269 270 267 262 266 266 262 259 261 265 268 273 272 266 265 263 257 261 266 265 262 261 260 260 260 262 258 249 243 242 243 242 238 237 239 243 245 246 248 247 242 235 233 231 230 231 232 233 234 235 237 237 236 235 236 237 236 240 245 250 247 252 250 246 231 233 239 236 246 245 245 253 261 268
266 270 267 262 254 255 258 264 264 267 269 269 267 268 266 259 262 265 263 266 261 266 274 261 265 267 265 263 263 271 273 271 266 265 263 262 262 258 248 244 244 244 245 239 236 238 240 242 244 243 242 244 244 239 234 229 229 232 236 240 242 242 240 236 237 236 236 236 237 241 244 243 246 250 246 243 243 242 250 256 259 250 261 263 261
264 265 266 263 254 250 250 256 261 264 263 264 265 265 267 270 265 244 260 264 270 270 269 274 267 265 271 266 262 271 278 279 275 271 268 264 262 252 248 245 244 244 245 241 238 238 239 237 236 239 240 242 243 245 245 234 234 236 241 246 248 249 250 244 243 245 245 244 243 243 244 245 248 251 252 248 245 235 232 249 245 230 247 259 263
261 263 264 262 253 246 245 244 252 258 260 257 259 262 262 265 266 252 249 268 272 265 272 281 277 266 264 270 262 269 277 281 280 280 275 269 258 251 248 247 248 244 248 245 242 243 241 238 234 236 238 243 243 245 247 241 237 238 242 248 253 253 253 254 260 245 237 241 244 246 248 250 251 254 254 253 249 240 227 242 242 205 243 244 258
261 257 259 257 249 239 240 241 244 249 254 258 254 258 259 259 264 260 253 255 262 272 273 271 279 277 261 262 269 265 272 279 282 281 275 270 262 251 249 249 254 250 249 253 247 243 246 244 241 239 240 246 244 243 242 237 235 235 238 243 249 254 255 250 248 250 246 246 245 245 252 249 250 249 248 247 245 239 231 239 242 223 240 247 248
260 256 256 254 246 240 234 238 243 243 249 258 258 252 256 264 261 259 263 252 265 271 268 265 273 277 276 267 268 260 267 274 277 276 276 272 264 254 243 245 251 255 252 253 257 249 241 246 246 245 243 244 243 242 239 239 235 239 233 237 242 249 247 246 242 245 250 245 253 244 249 243 239 238 240 239 237 232 231 232 231 226 235 244 240
260 255 253 252 246 241 239 232 244 246 242 250 258 264 252 253 262 256 264 267 266 272 268 267 270 276 278 269 261 263 254 265 274 274 270 270 268 260 248 243 245 249 256 255 249 253 251 241 243 240 239 239 242 242 240 243 243 241 238 239 238 251 255 252 247 240 249 251 253 253 253 250 244 242 243 239 234 228 226 228 226 222 226 235 238
253 254 251 250 248 245 243 243 238 246 251 246 257 261 257 245 250 253 257 262 266 267 270 269 269 276 280 275 259 262 262 254 265 274 270 265 263 261 251 249 237 241 253 255 252 250 249 249 245 240 241 244 247 245 243 239 240 239 239 238 242 245 248 250 254 251 252 252 253 255 253 251 252 247 243 242 236 229 225 225 223 223 224 228 232
248 248 250 250 248 247 246 244 246 242 248 237 240 255 258 254 254 244 249 256 256 265 269 269 272 277 282 282 270 253 260 266 255 262 268 262 261 261 258 255 241 238 243 256 252 253 252 250 248 244 245 246 247 247 245 243 244 240 239 236 241 246 248 249 245 248 249 249 248 251 250 249 250 247 241 242 237 226 225 224 224 219 214 187 79
244 249 248 248 250 248 247 248 245 245 245 242 238 249 256 251 254 245 239 242 253 261 267 268 268 272 279 286 288 270 250 263 264 255 262 264 264 262 262 263 259 248 239 250 256 254 258 255 253 248 246 246 248 247 245 247 245 244 245 247 250 249 247 247 244 244 248 248 245 246 246 244 245 250 244 237 234 206 195 181 157 142 154 121 103
243 248 245 246 246 245 248 248 247 245 242 222 238 244 254 243 255 247 225 238 239 248 261 263 262 268 275 277 284 287 272 262 269 261 257 265 266 267 268 273 269 262 258 256 252 253 253 256 257 257 257 257 257 258 257 256 256 256 256 256 257 254 248 249 250 250 248 245 245 247 249 244 240 247 244 206 170 127 121 79 68 53 54 65 62
248 249 249 245 246 240 247 252 247 246 243 224 228 235 238 242 240 251 225 235 236 241 258 257 260 262 266 272 276 281 282 271 272 272 259 263 267 269 269 275 276 271 265 266 265 264 262 263 262 263 263 262 262 256 256 255 256 256 257 257 255 251 248 248 250 246 249 250 251 252 254 254 234 214 174 149 164 185 165 154 141 130 130 127 108
246 253 250 247 246 235 239 247 249 245 240 233 229 232 229 231 234 244 234 233 236 239 247 251 256 258 261 266 273 280 281 270 267 271 263 255 258 260 270 274 279 284 282 271 274 273 273 272 270 269 269 263 258 257 256 261 263 259 254 247 245 244 243 241 244 248 252 254 256 257 258 231 94 114 169 177 193 182 175 167 167 162 148 140 137
239 248 249 240 243 231 235 243 243 250 241 228 235 236 231 220 226 231 228 221 220 235 231 241 245 247 258 264 269 280 283 277 259 257 263 255 256 251 250 261 265 263 268 266 257 264 273 286 291 297 288 287 275 275 269 263 261 265 261 253 250 246 246 248 250 251 253 254 261 289 65 138 189 192 172 187 179 147 148 163 160 147 142 134 120
236 247 249 242 243 230 233 239 237 241 247 238 233 227 227 222 225 242 234 219 210 220 232 238 242 242 241 253 258 266 275 277 267 219 233 238 254 272 277 262 253 251 246 251 265 271 280 281 282 281 273 275 279 275 274 272 267 257 259 257 253 250 247 240 245 247 250 249 248 235 230 187 200 150 166 156 147 138 128 114 104 134 110 117 163
234 243 242 239 239 229 232 236 236 236 240 244 247 254 233 228 230 230 253 226 219 226 221 235 236 235 239 247 228 238 250 260 281 283 279 276 272 269 265 263 256 245 232 241 232 247 246 252 251 254 259 255 258 259 257 256 259 258 247 240 240 242 242 243 247 253 257 252 256 240 220 186 174 171 172 166 124 123 120 137 116 123 132 150 149
235 240 238 237 229 223 226 234 230 230 233 235 239 249 270 243 230 235 240 246 242 233 233 238 244 241 237 257 257 247 253 260 268 276 280 278 275 272 270 268 269 267 263 264 240 235 244 243 249 248 249 249 251 256 258 259 258 257 258 245 234 237 245 244 252 270 268 259 252 221 177 183 183 165 176 154 138 129 108 86 115 122 147 165 179
234 236 232 237 227 221 224 228 230 228 234 225 232 238 248 268 270 229 230 237 237 243 245 243 242 245 247 245 248 269 268 268 264 263 267 273 273 269 275 276 272 266 260 252 251 242 236 245 249 247 247 250 251 254 255 258 262 260 262 260 248 231 239 249 214 155 178 155 151 129 135 141 133 140 132 127 135 148 143 141 146 158 131 117 175
234 239 235 234 228 221 222 226 227 225 232 228 229 224 234 241 256 277 235 218 227 230 236 241 244 246 247 252 249 245 250 260 269 274 274 270 270 266 275 279 278 275 269 254 237 243 237 238 242 241 236 246 250 249 253 250 256 259 253 253 259 209 111 63 96 83 67 123 122 133 134 127 132 126 123 123 145 145 152 154 113 87 102 123 198
230 235 235 231 227 226 222 223 224 228 224 224 227 223 228 228 241 246 269 281 269 244 224 228 234 241 253 255 254 253 257 265 270 274 276 273 272 279 283 282 280 274 261 251 248 246 248 243 244 243 248 249 253 256 257 258 258 265 279 3 53 66 73 79 72 88 96 97 83 77 80 91 121 134 118 78 81 94 105 99 105 117 154 179 211
233 239 239 236 233 234 227 221 223 227 223 224 224 225 230 230 229 237 241 247 253 259 276 249 224 219 228 242 250 251 255 260 264 266 268 270 275 287 295 290 280 282 271 260 256 255 256 253 252 255 262 277 310 325 305 340 4 30 76 85 84 87 90 65 71 55 76 60 59 52 71 59 63 65 98 97 92 74 90 101 115 134 164 195 199
233 238 240 234 234 236 231 226 223 224 225 226 222 224 227 224 227 234 237 239 245 254 254 246 244 228 229 235 235 242 248 253 257 262 266 274 283 296 282 267 273 269 265 261 252 257 258 285 329 9 36 64 58 59 52 60 49 59 63 90 95 94 86 80 78 73 53 52 58 68 56 46 50 55 64 70 85 99 107 121 135 154 156 186 204
232 236 238 234 230 230 229 226 224 225 225 226 221 226 225 226 230 233 233 236 241 242 246 254 252 261 240 240 235 242 245 245 249 275 283 287 298 298 272 273 266 271 263 271 292 318 350 44 3 38 50 74 75 78 73 74 71 76 75 76 84 81 71 71 62 57 62 58 60 55 68 64 65 68 97 107 102 110 120 114 117 151 175 209 219
229 234 235 231 226 226 227 226 228 222 226 224 223 222 226 226 227 227 231 236 235 238 245 243 234 243 249 252 185 206 198 3 355 313 325 3 18 9 343 350 329 309 314 341 330 7 83 57 35 60 62 73 85 80 89 86 81 88 87 87 86 88 85 79 73 75 79 85 78 81 87 91 89 92 93 107 131 117 116 131 139 148 300 280 261
234 236 236 233 225 225 222 227 224 218 224 220 221 217 226 227 227 227 230 234 234 236 239 243 240 240 244 205 146 109 91 235 201 242 187 85 61 37 11 356 355 345 351 341 339 19 51 45 28 46 40 44 50 47 56 68 70 70 86 93 92 95 95 102 100 99 102 104 94 89 82 78 73 73 86 99 85 110 121 109 120 138 212 280 270
232 238 234 229 232 231 227 227 227 223 224 217 222 215 224 226 225 227 227 228 235 235 235 236 240 236 182 109 128 115 176 216 215 188 139 123 78 46 41 23 19 18 3 4 18 18 36 36 29 36 40 34 38 37 43 55 60 70 81 87 95 87 93 93 91 91 88 88 88 76 81 72 69 74 60 78 80 53 65 38 19 19 325 274 279
233 237 236 227 225 227 227 225 227 227 223 219 220 214 222 222 223 222 225 229 235 235 233 233 219 104 105 124 136 172 174 203 159 121 100 92 88 71 51 41 32 32 33 41 34 43 42 39 33 37 39 41 41 45 43 44 48 51 57 57 61 65 56 55 55 58 63 62 67 65 59 60 51 61 51 22 36 53 40 44 34 8 322 322 294
233 236 234 234 223 220 226 226 228 224 220 219 215 219 218 218 218 220 224 229 230 228 230 197 116 118 113 118 117 117 99 74 88 95 83 70 67 65 61 52 41 42 42 43 37 49 55 55 44 34 38 33 28 22 28 27 30 35 34 41 47 50 51 45 44 44 49 52 49 53 47 47 52 54 49 53 59 57 50 28 350 336 310 279 292
231 235 236 234 224 220 223 229 221 216 217 217 221 215 213 215 219 222 227 226 226 214 211 162 135 123 101 92 89 85 81 80 72 72 64 59 56 49 41 37 40 34 35 36 48 58 65 71 68 57 51 44 41 37 35 28 22 34 45 53 56 55 55 47 42 36 40 50 54 51 58 51 51 57 51 55 45 44 46 44 3 4 334 329 303
233 237 237 235 232 231 229 225 219 219 217 215 210 206 205 211 217 219 220 220 210 186 160 136 132 122 105 78 79 82 84 87 91 84 83 78 74 62 50 37 36 35 40 36 36 47 69 73 76 73 70 67 63 60 59 47 43 43 44 56 59 57 47 45 39 32 32 50 55 58 51 59 55 63 57 50 58 46 9 20 6 339 314 298 283
232 232 234 234 231 229 229 221 220 216 209 202 208 208 200 206 213 211 204 201 169 137 122 121 121 122 116 112 104 105 105 105 101 105 103 110 111 105 95 79 65 58 50 46 40 47 56 71 82 81 76 65 57 56 54 46 46 48 46 64 72 64 54 45 41 31 47 70 67 73 65 79 73 70 64 52 51 57 14 355 337 318 312 297 288
229 230 230 231 230 226 225 218 209 207 204 205 204 204 203 203 200 194 183 168 151 142 133 129 128 126 128 129 124 120 122 122 123 123 127 124 126 114 105 85 78 70 63 54 38 39 48 53 58 63 66 60 56 53 54 53 50 53 56 67 85 91 84 75 44 51 50 71 80 88 90 74 68 70 48 63 58 11 299 283 283 257 248 269 273
227 226 225 223 224 222 217 208 202 206 205 204 201 201 196 188 168 150 151 151 153 145 142 145 145 143 139 135 132 131 126 121 118 119 110 100 97 89 80 76 78 70 62 54 51 46 40 43 49 57 61 61 61 58 51 48 48 42 53 58 75 97 112 96 97 107 103 102 100 101 96 114 90 43 17 17 359 303 288 272 258 265 265 260 260
223 224 223 220 216 215 210 201 205 202 204 201 197 192 177 157 156 157 150 151 149 147 142 135 136 135 130 123 120 115 111 107 102 93 88 88 83 87 88 86 82 81 74 72 60 55 54 53 48 47 49 51 54 50 44 40 39 31 8 21 270 198 183 161 131 150 202 138 156 156 169 169 209 204 250 211 249 255 272 276 276 274 265 262 264
222 222 221 215 211 210 205 202 201 202 203 191 180 172 161 158 158 155 153 153 151 149 147 141 134 120 115 117 112 107 107 102 102 101 102 98 95 94 93 96 93 87 83 79 73 62 55 50 54 52 46 42 37 39 30 14 9 6 338 334 317 120 107 96 132 270 220 191 188 161 161 165 201 226 235 241 247 246 252 262 263 265 270 268 263
223 223 220 216 210 210 204 200 202 198 191 179 176 167 161 156 156 154 149 149 141 142 135 135 131 129 127 124 121 116 115 113 116 116 117 118 117 114 111 103 95 88 87 84 75 67 61 53 46 38 33 28 25 7 7 10 326 317 322 281 300 80 97 94 73 88 121 182 210 212 196 224 224 233 236 236 245 246 254 254 252 251 252 256 260
225 223 221 214 209 203 194 192 191 185 181 175 169 165 163 162 158 153 150 153 145 144 138 134 126 125 118 119 117 118 118 115 118 119 124 119 122 116 115 109 106 100 91 88 84 75 66 53 39 36 25 22 10 5 341 313 296 257 244 87 84 108 113 111 146 315 328 300 171 181 181 215 236 251 254 244 232 233 244 253 253 247 250 249 257